Project,Study,Ord_Occ,Event_Num,Cast_ID,Date_Time_UTC,Date_Time_PST,Lat_Dec,Lon_Dec,Sta_ID,Line,Sta,Depth,Pressure,PrQ,Temp1,Temp1Q,Temp2,Temp2Q,TempAve,Salt1,Salt1Q,Salt1_Corr,Salt2,Salt2Q,Salt2_Corr,SaltAve_Corr,Ox1,Ox1Q,Ox1_CruiseCorr,Ox1_StaCorr,Ox2,Ox2Q,Ox2_CruiseCorr,Ox2_StaCorr,OxAve_StaCorr,Ox1uM,Ox1uM_CruiseCorr,Ox1uM_StaCorr,Ox2uM,Ox2uM_CruiseCorr,Ox2uM_StaCorr,OxAveuM_StaCorr,FluorV,FluorQ,EstChl_CruiseCorr,EstChl_StaCorr,ISUSV,ISUSQ,EstNO3_CruiseCorr,EstNO3_StaCorr,SigThetaTS1,SigThetaTS1Q,SigThetaTS2,SigThetaTS2Q,BAT,XMiss,TransQ,pH,pHQ,SPAR,SPARQ,PAR,PARQ,PoT1,PoT2,DynHt,SVA,OxSat1,OxSat2,BTL_Depth,BTL_Temp,SaltB,OxB,OxBuM,Chl-a,Phaeo,NO3,NO2,NH4,PO4,SIL
CalCOFI,2007SR,011,,2007_011d,15-Jul-2020 01:28:06,14-Jul-2020 17:28:06,31.84573,-119.57022,093.3 060.0,093.3,060.0,2.000,2.014,,17.7545,,17.7545,,17.7545,33.4883,,33.4885,33.4883,,33.4899,33.4892,5.4079,,5.6330,5.6228,3.9877,,5.5786,4.4709,5.0469,235.815,245.6792,243.9813,173.887,411.2250,190.4689,217.2251,0.0457,,0.1127,0.1002,,,,,24.1743,,24.1744,,0.6999,83.9479,,8.178,,3.6243E+02,,9.8196E+00,,17.7541,17.7541,0.0001,,99.311,73.231,2,17.739,33.4788,5.644,246.11,0.144,0.052,,,,,0.88
CalCOFI,2007SR,011,,2007_011d,15-Jul-2020 01:28:14,14-Jul-2020 17:28:14,31.84572,-119.57022,093.3 060.0,093.3,060.0,3.000,3.021,,17.7552,,17.7550,,17.7551,33.4882,,33.4884,33.4883,,33.4899,33.4892,5.4020,,5.6268,5.6166,3.9897,,5.5834,4.4754,5.0460,235.559,245.4119,243.7117,173.973,410.5989,190.6616,217.1867,0.0458,,0.1139,0.1008,,,,,24.1741,,24.1742,,0.6996,83.9544,,8.178,,3.6027E+02,,8.3371E+00,,17.7547,17.7545,0.0063,,99.205,73.268,,,,,,,,,,,,
CalCOFI,2007SR,011,,2007_011d,15-Jul-2020 01:28:15,14-Jul-2020 17:28:15,31.84574,-119.57022,093.3 060.0,093.3,060.0,4.000,4.028,,17.7567,,17.7572,,17.7570,33.4880,,33.4882,33.4880,,33.4896,33.4889,5.3998,,5.6246,5.6142,3.9913,,5.5872,4.4790,5.0466,235.462,245.3107,243.6095,174.043,410.3616,190.8186,217.2141,0.0451,,0.1057,0.0967,,,,,24.1737,,24.1735,,0.6987,83.9735,,8.178,,3.5814E+02,,7.1940E+00,,17.7560,17.7565,0.0099,,99.167,73.300,,,,,,,,,,,,
CalCOFI,2007SR,011,,2007_011d,15-Jul-2020 01:28:17,14-Jul-2020 17:28:17,31.84574,-119.57022,093.3 060.0,093.3,060.0,5.000,5.035,,17.7574,,17.7573,,17.7574,33.4878,,33.4880,33.4879,,33.4895,33.4888,5.4001,,5.6249,5.6145,3.9894,,5.5827,4.4748,5.0447,235.478,245.3274,243.6263,173.959,410.4008,190.6302,217.1283,0.0455,,0.1104,0.0990,,,,,24.1734,,24.1735,,0.6993,83.9614,,8.178,,3.5903E+02,,6.3024E+00,,17.7566,17.7565,0.0137,,99.175,73.265,,,,,,,,,,,,
CalCOFI,2007SR,011,,2007_011d,15-Jul-2020 01:28:20,14-Jul-2020 17:28:20,31.84574,-119.57022,093.3 060.0,093.3,060.0,6.000,6.042,,17.7574,,17.7572,,17.7573,33.4878,,33.4880,33.4880,,33.4896,33.4888,5.4022,,5.6271,5.6168,3.9888,,5.5813,4.4734,5.0451,235.569,245.4224,243.7222,173.933,410.6233,190.5720,217.1471,0.0460,,0.1162,0.1019,,,,,24.1734,,24.1736,,0.6987,83.9731,,8.178,,3.5853E+02,,5.6982E+00,,17.7564,17.7562,0.0174,,99.213,73.254,,,,,,,,,,,,
CalCOFI,2007SR,011,,2007_011d,15-Jul-2020 01:28:22,14-Jul-2020 17:28:22,31.84573,-119.57022,093.3 060.0,093.3,060.0,7.000,7.049,,17.7550,,17.7547,,17.7549,33.4887,,33.4889,33.4888,,33.4904,33.4897,5.4032,,5.6281,5.6178,3.9931,,5.5915,4.4831,5.0505,235.611,245.4662,243.7664,174.122,410.7261,190.9957,217.3811,0.0471,,0.1291,0.1083,,,,,24.1747,,24.1749,,0.6982,83.9823,,8.178,,3.5435E+02,,4.9296E+00,,17.7538,17.7535,0.0212,,99.226,73.330,,,,,,,,,,,,
CalCOFI,2007SR,011,,2007_011d,15-Jul-2020 01:28:24,14-Jul-2020 17:28:24,31.84574,-119.57022,093.3 060.0,093.3,060.0,8.000,8.056,,17.7515,,17.7508,,17.7512,33.4895,,33.4897,33.4899,,33.4915,33.4906,5.4028,,5.6277,5.6174,3.9926,,5.5903,4.4820,5.0497,235.592,245.4464,243.7464,174.100,410.6796,190.9463,217.3464,0.0453,,0.1080,0.0979,,,,,24.1762,,24.1767,,0.6989,83.9681,,8.178,,3.5714E+02,,4.6748E+00,,17.7502,17.7495,0.0250,,99.212,73.316,,,,,,,,,,,,
CalCOFI,2007SR,011,,2007_011d,15-Jul-2020 01:28:26,14-Jul-2020 17:28:26,31.84574,-119.57022,093.3 060.0,093.3,060.0,9.000,9.063,,17.7477,,17.7467,,17.7472,33.4906,,33.4908,33.4908,,33.4924,33.4916,5.4057,,5.6307,5.6205,3.9921,,5.5891,4.4808,5.0507,235.720,245.5800,243.8813,174.078,410.9927,190.8970,217.3892,0.0467,,0.1245,0.1060,,,,,24.1780,,24.1784,,0.6989,83.9691,,8.179,,3.5799E+02,,4.2387E+00,,17.7462,17.7452,0.0287,,99.260,73.302,,,,,,,,,,,,
CalCOFI,2007SR,011,,2007_011d,15-Jul-2020 01:28:28,14-Jul-2020 17:28:28,31.84574,-119.57022,093.3 060.0,093.3,060.0,10.000,10.070,,17.7454,,17.7412,,17.7433,33.4910,,33.4912,33.4913,,33.4929,33.4921,5.4092,,5.6344,5.6242,3.9956,,5.5975,4.4887,5.0565,235.870,245.7366,244.0393,174.231,411.3595,191.2400,217.6397,0.0462,,0.1186,0.1031,,,,,24.1789,,24.1802,,0.6986,83.9744,,8.179,,3.5480E+02,,3.9677E+00,,17.7437,17.7395,0.0325,,99.319,73.359,,,,,,,,,,,,
CalCOFI,2007SR,011,,2007_011d,15-Jul-2020 01:28:30,14-Jul-2020 17:28:30,31.84574,-119.57022,093.3 060.0,093.3,060.0,11.000,11.077,,17.7318,,17.7260,,17.7289,33.4919,,33.4921,33.4928,,33.4944,33.4933,5.4051,,5.6301,5.6198,3.9939,,5.5934,4.4849,5.0524,235.692,245.5508,243.8518,174.156,410.9242,191.0719,217.4619,0.0459,,0.1151,0.1014,,,,,24.1830,,24.1850,,0.6993,83.9605,,8.180,,3.5700E+02,,3.6820E+00,,17.7299,17.7242,0.0363,,99.220,73.307,,,,,,,,,,,,
CalCOFI,2007SR,011,,2007_011d,15-Jul-2020 01:28:32,14-Jul-2020 17:28:32,31.84574,-119.57022,093.3 060.0,093.3,060.0,12.000,12.084,,17.7368,,17.7369,,17.7369,33.4917,,33.4919,33.4916,,33.4932,33.4926,5.4138,,5.6392,5.6290,3.9942,,5.5942,4.4856,5.0573,236.073,245.9485,244.2531,174.168,411.8560,191.0988,217.6760,0.0471,,0.1291,0.1083,,,,,24.1816,,24.1815,,0.6999,83.9481,,8.181,,3.5498E+02,,3.3885E+00,,17.7348,17.7349,0.0400,,99.389,73.327,12,17.539,33.4891,5.667,247.10,0.148,0.040,,,,,0.85
CalCOFI,2007SR,011,,2007_011d,15-Jul-2020 01:28:35,14-Jul-2020 17:28:35,31.84572,-119.57022,093.3 060.0,093.3,060.0,13.000,13.091,,17.6645,,17.6755,,17.6700,33.4971,,33.4973,33.4958,,33.4974,33.4974,5.4276,,5.6536,5.6436,4.0028,,5.6147,4.5049,5.0743,236.670,246.5717,244.8820,174.542,413.3162,191.9372,218.4096,0.0505,,0.1691,0.1278,,,,,24.2032,,24.1996,,0.7010,83.9234,,8.182,,3.5317E+02,,3.1709E+00,,17.6623,17.6734,0.0438,,99.509,73.401,,,,,,,,,,,,
CalCOFI,2007SR,011,,2007_011d,15-Jul-2020 01:28:37,14-Jul-2020 17:28:37,31.84573,-119.57022,093.3 060.0,093.3,060.0,14.000,14.098,,17.6531,,17.6569,,17.6550,33.4997,,33.4999,33.5005,,33.5021,33.5010,5.4296,,5.6557,5.6457,4.0038,,5.6171,4.5072,5.0765,236.753,246.6584,244.9695,174.584,413.5192,192.0313,218.5004,0.0467,,0.1245,0.1060,,,,,24.2080,,24.2078,,0.7019,83.9050,,8.182,,3.6280E+02,,3.0297E+00,,17.6507,17.6545,0.0475,,99.524,73.395,,,,,,,,,,,,
CalCOFI,2007SR,011,,2007_011d,15-Jul-2020 01:28:38,14-Jul-2020 17:28:38,31.84574,-119.57022,093.3 060.0,093.3,060.0,15.000,15.106,,17.6293,,17.6261,,17.6277,33.4962,,33.4964,33.4964,,33.4980,33.4972,5.4376,,5.6640,5.6541,4.0069,,5.6245,4.5142,5.0842,237.102,247.0227,245.3371,174.717,414.3728,192.3295,218.8333,0.0484,,0.1444,0.1158,,,,,24.2111,,24.2120,,0.7024,83.8956,,8.183,,3.6217E+02,,2.8409E+00,,17.6268,17.6235,0.0512,,99.624,73.407,,,,,,,,,,,,
CalCOFI,2007SR,011,,2007_011d,15-Jul-2020 01:28:39,14-Jul-2020 17:28:39,31.84574,-119.57022,093.3 060.0,093.3,060.0,16.000,16.113,,17.6357,,17.6290,,17.6324,33.4976,,33.4978,33.4966,,33.4982,33.4980,5.4345,,5.6608,5.6509,4.0071,,5.6249,4.5146,5.0828,236.969,246.8838,245.1970,174.728,414.0475,192.3541,218.7756,0.0501,,0.1644,0.1255,,,,,24.2107,,24.2115,,0.7041,83.8593,,8.183,,3.5465E+02,,2.6450E+00,,17.6330,17.6263,0.0549,,99.580,73.416,,,,,,,,,,,,
CalCOFI,2007SR,011,,2007_011d,15-Jul-2020 01:28:43,14-Jul-2020 17:28:43,31.84572,-119.57022,093.3 060.0,093.3,060.0,17.000,17.120,,17.5996,,17.5930,,17.5963,33.4977,,33.4979,33.4975,,33.4991,33.4985,5.4427,,5.6694,5.6595,4.0204,,5.6567,4.5446,5.1021,237.323,247.2534,245.5699,175.305,414.9134,193.6476,219.6088,0.0524,,0.1914,0.1385,,,,,24.2195,,24.2209,,0.7089,83.7585,,8.183,,3.5449E+02,,2.5571E+00,,17.5967,17.5901,0.0587,,99.661,73.608,,,,,,,,,,,,
CalCOFI,2007SR,011,,2007_011d,15-Jul-2020 01:28:45,14-Jul-2020 17:28:45,31.84572,-119.57022,093.3 060.0,093.3,060.0,18.000,18.127,,17.2050,,17.1812,,17.1931,33.5067,,33.5069,33.5029,,33.5045,33.5057,5.5924,,5.8258,5.8176,4.0607,,5.7529,4.6353,5.2265,243.827,254.0429,252.4214,177.046,430.8212,197.5504,224.9859,0.0588,,0.2666,0.1739,,,,,24.3206,,24.3233,,0.7148,83.6366,,8.188,,3.6558E+02,,2.4402E+00,,17.2020,17.1782,0.0624,,101.636,73.765,,,,,,,,,,,,
CalCOFI,2007SR,011,,2007_011d,15-Jul-2020 01:28:46,14-Jul-2020 17:28:46,31.84572,-119.57022,093.3 060.0,093.3,060.0,19.000,19.134,,16.8726,,16.8321,,16.8524,33.4922,,33.4924,33.4839,,33.4855,33.4890,5.6629,,5.8995,5.8920,4.0849,,5.8107,4.6898,5.2909,246.884,257.2341,255.6417,178.088,438.2982,199.8862,227.7640,0.0686,,0.3818,0.2257,,,,,24.3879,,24.3909,,0.7179,83.5707,,8.191,,3.6129E+02,,2.3006E+00,,16.8695,16.8290,0.0659,,102.252,73.697,,,,,,,,,,,,
CalCOFI,2007SR,011,,2007_011d,15-Jul-2020 01:28:48,14-Jul-2020 17:28:48,31.84572,-119.57022,093.3 060.0,093.3,060.0,20.000,20.141,,16.7240,,16.7110,,16.7175,33.4892,,33.4894,33.4884,,33.4900,33.4897,5.6507,,5.8867,5.8791,4.0947,,5.8341,4.7119,5.2955,246.346,256.6725,255.0750,178.511,436.9823,200.8345,227.9548,0.0797,,0.5124,0.2811,,,,,24.4203,,24.4227,,0.7251,83.4211,,8.195,,3.5581E+02,,2.1589E+00,,16.7208,16.7078,0.0695,,101.738,73.704,,,,,,,,,,,,
CalCOFI,2007SR,011,,2007_011d,15-Jul-2020 01:28:50,14-Jul-2020 17:28:50,31.84572,-119.57022,093.3 060.0,093.3,060.0,21.000,21.148,,16.7392,,16.7738,,16.7565,33.4937,,33.4939,33.4989,,33.5005,33.4972,5.6559,,5.8921,5.8846,4.1007,,5.8484,4.7254,5.3050,246.573,256.9095,255.3141,178.771,437.5376,201.4173,228.3657,0.0931,,0.6701,0.3433,,,,,24.4202,,24.4161,,0.7269,83.3833,,8.195,,3.5764E+02,,2.0581E+00,,16.7358,16.7704,0.0730,,101.864,73.905,,,,,,,,,,,,
CalCOFI,2007SR,011,,2007_011d,15-Jul-2020 01:28:53,14-Jul-2020 17:28:53,31.84572,-119.57022,093.3 060.0,093.3,060.0,22.000,22.155,,16.5180,,16.5253,,16.5217,33.4759,,33.4761,33.4761,,33.4777,33.4769,5.6966,,5.9347,5.9276,4.1331,,5.9257,4.7983,5.3630,248.338,258.7519,257.1734,180.176,441.8545,204.5669,230.8702,0.1002,,0.7537,0.3741,,,,,24.4579,,24.4563,,0.7362,83.1894,,8.196,,3.6186E+02,,1.9474E+00,,16.5144,16.5218,0.0765,,102.147,74.121,22,15.761,33.4404,6.106,266.15,0.362,0.235,,,,,1.07
CalCOFI,2007SR,011,,2007_011d,15-Jul-2020 01:28:55,14-Jul-2020 17:28:55,31.84572,-119.57022,093.3 060.0,093.3,060.0,23.000,23.162,,16.4068,,16.4066,,16.4067,33.4736,,33.4738,33.4741,,33.4757,33.4748,5.7409,,5.9810,5.9743,4.1548,,5.9776,4.8472,5.4108,250.263,260.7614,259.2013,181.119,446.5628,206.6808,232.9411,0.1082,,0.8479,0.4071,,,,,24.4818,,24.4822,,0.7384,83.1433,,8.197,,3.6287E+02,,1.8547E+00,,16.4031,16.4029,0.0800,,102.717,74.338,,,,,,,,,,,,
CalCOFI,2007SR,011,,2007_011d,15-Jul-2020 01:28:57,14-Jul-2020 17:28:57,31.84572,-119.57022,093.3 060.0,093.3,060.0,24.000,24.170,,16.1901,,16.1838,,16.1870,33.4499,,33.4501,33.4470,,33.4486,33.4494,5.8177,,6.0612,6.0554,4.1775,,6.0317,4.8983,5.4769,253.600,264.2449,262.7166,182.104,454.7246,208.8889,235.8028,0.1082,,0.8479,0.4071,,,,,24.5131,,24.5123,,0.7296,83.3261,,8.196,,3.6373E+02,,1.7218E+00,,16.1863,16.1800,0.0835,,103.635,74.407,,,,,,,,,,,,
CalCOFI,2007SR,011,,2007_011d,15-Jul-2020 01:28:58,14-Jul-2020 17:28:58,31.84572,-119.57021,093.3 060.0,093.3,060.0,25.000,25.177,,15.9533,,15.9423,,15.9478,33.4485,,33.4487,33.4483,,33.4499,33.4493,5.8772,,6.1234,6.1182,4.2008,,6.0874,4.9508,5.5345,256.181,266.9392,265.4355,183.109,461.0374,211.1418,238.2887,0.1171,,0.9528,0.4416,,,,,24.5659,,24.5682,,0.7294,83.3313,,8.195,,3.6225E+02,,1.6160E+00,,15.9494,15.9384,0.0869,,104.210,74.470,,,,,,,,,,,,
CalCOFI,2007SR,011,,2007_011d,15-Jul-2020 01:29:00,14-Jul-2020 17:29:00,31.84572,-119.57021,093.3 060.0,093.3,060.0,26.000,26.184,,15.8804,,15.9290,,15.9047,33.4594,,33.4596,33.4650,,33.4666,33.4631,5.8694,,6.1152,6.1100,4.2073,,6.1029,4.9654,5.5377,255.835,266.5781,265.0710,183.389,460.1911,211.7695,238.4203,0.1286,,1.0884,0.4829,,,,,24.5907,,24.5840,,0.7344,83.2275,,8.197,,3.6153E+02,,1.5170E+00,,15.8763,15.9250,0.0903,,103.930,74.573,,,,,,,,,,,,
CalCOFI,2007SR,011,,2007_011d,15-Jul-2020 01:29:03,14-Jul-2020 17:29:03,31.84572,-119.57022,093.3 060.0,093.3,060.0,27.000,27.191,,15.8579,,15.8683,,15.8631,33.4636,,33.4638,33.4568,,33.4584,33.4611,5.9074,,6.1549,6.1501,4.2315,,6.1607,5.0199,5.5850,257.491,268.3068,266.8155,184.442,464.2414,214.1300,240.4728,0.1294,,1.0979,0.4856,,,,,24.5990,,24.5914,,0.7385,83.1412,,8.198,,3.6763E+02,,1.3983E+00,,15.8537,15.8641,0.0936,,104.560,74.908,,,,,,,,,,,,
CalCOFI,2007SR,011,,2007_011d,15-Jul-2020 01:29:05,14-Jul-2020 17:29:05,31.84572,-119.57022,093.3 060.0,093.3,060.0,28.000,28.198,,15.6658,,15.6575,,15.6617,33.4577,,33.4579,33.4564,,33.4580,33.4580,5.9532,,6.2028,6.1984,4.2533,,6.2127,5.0690,5.6337,259.478,270.3810,268.9086,185.385,469.1013,216.2439,242.5763,0.1279,,1.0802,0.4805,,,,,24.6375,,24.6383,,0.7356,83.2025,,8.198,,3.6711E+02,,1.3049E+00,,15.6615,15.6532,0.0970,,104.970,74.983,,,,,,,,,,,,
CalCOFI,2007SR,011,,2007_011d,15-Jul-2020 01:29:06,14-Jul-2020 17:29:06,31.84572,-119.57020,093.3 060.0,093.3,060.0,29.000,29.205,,15.5725,,15.5669,,15.5697,33.4603,,33.4605,33.4612,,33.4628,33.4617,5.9726,,6.2231,6.2189,4.2696,,6.2516,5.1057,5.6623,260.318,271.2579,269.7935,186.091,471.1559,217.8266,243.8101,0.1320,,1.1286,0.4943,,,,,24.6603,,24.6623,,0.7358,83.1968,,8.200,,3.6563E+02,,1.2213E+00,,15.5681,15.5625,0.1003,,105.120,75.138,,,,,,,,,,,,
CalCOFI,2007SR,011,,2007_011d,15-Jul-2020 01:29:08,14-Jul-2020 17:29:08,31.84572,-119.57021,093.3 060.0,093.3,060.0,30.000,30.212,,15.4846,,15.4718,,15.4782,33.4615,,33.4617,33.4617,,33.4633,33.4625,6.0256,,6.2784,6.2749,4.2849,,6.2881,5.1401,5.7075,262.621,273.6620,272.2196,186.754,476.7887,219.3128,245.7662,0.1395,,1.2170,0.5184,,,,,24.6808,,24.6838,,0.7395,83.1218,,8.201,,3.6634E+02,,1.1246E+00,,15.4800,15.4672,0.1036,,105.868,75.266,,,,,,,,,,,,
CalCOFI,2007SR,011,,2007_011d,15-Jul-2020 01:29:10,14-Jul-2020 17:29:10,31.84572,-119.57022,093.3 060.0,093.3,060.0,31.000,31.219,,15.4025,,15.4083,,15.4054,33.4656,,33.4658,33.4653,,33.4669,33.4664,5.9331,,6.1818,6.1772,4.3058,,6.3380,5.1872,5.6822,258.584,269.4477,267.9669,187.664,466.9147,221.3528,244.6599,0.1383,,1.2029,0.5147,,,,,24.7021,,24.7006,,0.7377,83.1580,,8.201,,3.6488E+02,,1.0174E+00,,15.3977,15.4036,0.1069,,104.076,75.541,,,,,,,,,,,,
CalCOFI,2007SR,011,,2007_011d,15-Jul-2020 01:29:14,14-Jul-2020 17:29:14,31.84572,-119.57022,093.3 060.0,093.3,060.0,32.000,32.227,,15.1051,,15.1150,,15.1101,33.4271,,33.4273,33.4246,,33.4262,33.4268,5.8813,,6.1277,6.1225,4.3603,,6.4681,5.3099,5.7162,256.320,267.0843,265.5819,190.031,461.3773,226.6588,246.1204,0.1375,,1.1934,0.5122,,,,,24.7375,,24.7334,,0.7261,83.3997,,8.199,,3.7129E+02,,9.2645E-01,,15.1003,15.1102,0.1101,,102.536,76.031,32,14.264,33.4180,,268.12,0.463,0.243,,,,,1.82
CalCOFI,2007SR,011,,2007_011d,15-Jul-2020 01:29:15,14-Jul-2020 17:29:15,31.84572,-119.57022,093.3 060.0,093.3,060.0,33.000,33.234,,14.7053,,14.6974,,14.7014,33.4206,,33.4208,33.4184,,33.4200,33.4204,5.8848,,6.1313,6.1262,4.4000,,6.5629,5.3993,5.7628,256.450,267.2201,265.7188,191.747,461.6953,230.5056,248.1122,0.1324,,1.1333,0.4957,,,,,24.8190,,24.8191,,0.7137,83.6585,,8.197,,3.7490E+02,,8.5421E-01,,14.7005,14.6926,0.1133,,101.777,76.085,,,,,,,,,,,,
CalCOFI,2007SR,011,,2007_011d,15-Jul-2020 01:29:16,14-Jul-2020 17:29:16,31.84572,-119.57021,093.3 060.0,093.3,060.0,34.000,34.241,,14.5721,,14.5579,,14.5650,33.4105,,33.4107,33.4099,,33.4115,33.4111,5.9107,,6.1584,6.1536,4.4102,,6.5873,5.4223,5.7880,257.573,268.3924,266.9019,192.185,464.4420,231.4875,249.1947,0.1351,,1.1651,0.5045,,,,,24.8397,,24.8422,,0.7107,83.7215,,8.194,,3.7376E+02,,7.8345E-01,,14.5671,14.5529,0.1164,,101.946,76.044,,,,,,,,,,,,
CalCOFI,2007SR,011,,2007_011d,15-Jul-2020 01:29:17,14-Jul-2020 17:29:17,31.84572,-119.57020,093.3 060.0,093.3,060.0,35.000,35.248,,14.4127,,14.3917,,14.4022,33.3925,,33.3927,33.3880,,33.3896,33.3912,5.9466,,6.1959,6.1915,4.4229,,6.6176,5.4509,5.8212,259.132,270.0198,268.5442,192.734,468.2551,232.7182,250.6312,0.1255,,1.0519,0.4721,,,,,24.8596,,24.8606,,0.7019,83.9058,,8.189,,3.6964E+02,,7.2961E-01,,14.4076,14.3866,0.1196,,102.225,75.997,,,,,,,,,,,,
CalCOFI,2007SR,011,,2007_011d,15-Jul-2020 01:29:21,14-Jul-2020 17:29:21,31.84572,-119.57022,093.3 060.0,093.3,060.0,36.000,36.255,,14.3646,,14.4238,,14.3942,33.3922,,33.3924,33.4037,,33.4053,33.3989,5.8705,,6.1164,6.1111,4.4321,,6.6396,5.4716,5.7914,255.814,266.5561,265.0489,193.136,460.1397,233.6193,249.3341,0.1248,,1.0436,0.4697,,,,,24.8696,,24.8659,,0.7032,83.8778,,8.179,,3.6780E+02,,6.5938E-01,,14.3594,14.4185,0.1227,,100.818,76.213,,,,,,,,,,,,
CalCOFI,2007SR,011,,2007_011d,15-Jul-2020 01:29:24,14-Jul-2020 17:29:24,31.84572,-119.57022,093.3 060.0,093.3,060.0,37.000,37.263,,14.2988,,14.3041,,14.3015,33.3904,,33.3906,33.3864,,33.3880,33.3893,5.7479,,5.9883,5.9817,4.4523,,6.6878,5.5171,5.7494,250.467,260.9744,259.4162,194.013,447.0617,235.5853,247.5008,0.1265,,1.0637,0.4756,,,,,24.8821,,24.8779,,0.6949,84.0528,,8.175,,3.7359E+02,,5.8595E-01,,14.2935,14.2987,0.1258,,98.581,76.367,,,,,,,,,,,,
CalCOFI,2007SR,011,,2007_011d,15-Jul-2020 01:29:25,14-Jul-2020 17:29:25,31.84572,-119.57021,093.3 060.0,093.3,060.0,38.000,38.270,,14.0350,,14.0367,,14.0359,33.3756,,33.3758,33.3735,,33.3751,33.3755,5.7811,,6.0230,6.0168,4.4760,,6.7444,5.5704,5.7936,251.905,262.4755,260.9310,195.035,450.5789,237.8763,249.4037,0.1198,,0.9847,0.4517,,,,,24.9258,,24.9238,,0.6892,84.1735,,8.172,,3.7517E+02,,5.2980E-01,,14.0295,14.0313,0.1288,,98.615,76.353,,,,,,,,,,,,
CalCOFI,2007SR,011,,2007_011d,15-Jul-2020 01:29:26,14-Jul-2020 17:29:26,31.84572,-119.57021,093.3 060.0,093.3,060.0,39.000,39.277,,13.8950,,13.8924,,13.8937,33.3923,,33.3925,33.3935,,33.3951,33.3938,5.8053,,6.0483,6.0423,4.4861,,6.7685,5.5932,5.8178,252.948,263.5643,262.0298,195.470,453.1299,238.8515,250.4407,0.1130,,0.9045,0.4260,,,,,24.9677,,24.9692,,0.6855,84.2501,,8.168,,3.7514E+02,,4.8687E-01,,13.8895,13.8868,0.1319,,98.756,76.312,,,,,,,,,,,,
CalCOFI,2007SR,011,,2007_011d,15-Jul-2020 01:29:28,14-Jul-2020 17:29:28,31.84572,-119.57022,093.3 060.0,093.3,060.0,40.000,40.284,,13.8864,,13.9025,,13.8945,33.4003,,33.4005,33.4030,,33.4046,33.4026,5.8006,,6.0433,6.0373,4.4804,,6.7549,5.5803,5.8088,252.743,263.3503,261.8138,195.218,452.6285,238.2865,250.0502,0.1134,,0.9092,0.4276,,,,,24.9757,,24.9744,,0.6842,84.2786,,8.161,,3.7150E+02,,4.4269E-01,,13.8807,13.8969,0.1349,,98.664,76.234,,,,,,,,,,,,
CalCOFI,2007SR,011,,2007_011d,15-Jul-2020 01:29:31,14-Jul-2020 17:29:31,31.84572,-119.57022,093.3 060.0,093.3,060.0,41.000,41.291,,13.9091,,13.9492,,13.9292,33.4002,,33.4004,33.4032,,33.4048,33.4026,5.6096,,5.8438,5.8357,4.4695,,6.7288,5.5558,5.6958,244.422,254.6640,253.0482,194.748,432.2765,237.2329,245.1406,0.1202,,0.9894,0.4531,,,,,24.9710,,24.9650,,0.6865,84.2292,,8.155,,3.7053E+02,,3.9720E-01,,13.9033,13.9434,0.1379,,95.460,76.122,,,,,,,,,,,,
CalCOFI,2007SR,011,,2007_011d,15-Jul-2020 01:29:33,14-Jul-2020 17:29:33,31.84572,-119.57022,093.3 060.0,093.3,060.0,42.000,42.298,,13.8765,,13.8751,,13.8758,33.4422,,33.4424,33.4464,,33.4480,33.4452,5.5464,,5.7777,5.7690,4.4743,,6.7403,5.5666,5.6678,241.660,251.7808,250.1386,194.944,425.5211,237.6723,243.9055,0.1186,,0.9705,0.4472,,,,,25.0102,,25.0137,,0.6873,84.2122,,8.148,,3.7500E+02,,3.3049E-01,,13.8706,13.8691,0.1409,,94.347,76.108,42,13.174,33.4172,,241.78,0.548,0.287,,,,,3.96
CalCOFI,2007SR,011,,2007_011d,15-Jul-2020 01:29:35,14-Jul-2020 17:29:35,31.84572,-119.57022,093.3 060.0,093.3,060.0,43.000,43.306,,13.8168,,13.8204,,13.8186,33.4588,,33.4590,33.4593,,33.4609,33.4600,5.5256,,5.7560,5.7470,4.4737,,6.7389,5.5653,5.6562,240.745,250.8256,249.1747,194.913,423.2831,237.6028,243.3888,0.1214,,1.0035,0.4575,,,,,25.0353,,25.0350,,0.6879,84.2006,,8.142,,3.7357E+02,,2.6711E-01,,13.8108,13.8143,0.1438,,93.887,76.019,,,,,,,,,,,,
CalCOFI,2007SR,011,,2007_011d,15-Jul-2020 01:29:37,14-Jul-2020 17:29:37,31.84572,-119.57022,093.3 060.0,093.3,060.0,44.000,44.313,,13.6736,,13.6721,,13.6729,33.4398,,33.4400,33.4399,,33.4415,33.4408,5.4815,,5.7099,5.7005,4.4817,,6.7580,5.5833,5.6419,238.820,248.8161,247.1469,195.263,418.5748,238.3874,242.7672,0.1197,,0.9835,0.4513,,,,,25.0501,,25.0504,,0.6868,84.2242,,8.138,,3.7313E+02,,2.2412E-01,,13.6674,13.6659,0.1468,,92.856,75.918,,,,,,,,,,,,
CalCOFI,2007SR,011,,2007_011d,15-Jul-2020 01:29:39,14-Jul-2020 17:29:39,31.84572,-119.57022,093.3 060.0,093.3,060.0,45.000,45.320,,13.5686,,13.5668,,13.5677,33.4357,,33.4359,33.4362,,33.4378,33.4369,5.4633,,5.6909,5.6813,4.4852,,6.7663,5.5912,5.6363,238.023,247.9841,246.3073,195.409,416.6255,238.7147,242.5110,0.1223,,1.0141,0.4608,,,,,25.0683,,25.0691,,0.6903,84.1495,,8.134,,3.7479E+02,,1.8066E-01,,13.5623,13.5605,0.1497,,92.347,75.811,,,,,,,,,,,,
CalCOFI,2007SR,011,,2007_011d,15-Jul-2020 01:29:41,14-Jul-2020 17:29:41,31.84572,-119.57022,093.3 060.0,093.3,060.0,46.000,46.327,,13.3810,,13.3838,,13.3824,33.4119,,33.4121,33.4126,,33.4142,33.4132,5.4848,,5.7134,5.7040,4.4918,,6.7821,5.6060,5.6550,238.956,248.9581,247.2901,195.693,418.9075,239.3513,243.3207,0.1228,,1.0200,0.4625,,,,,25.0879,,25.0879,,0.6905,84.1446,,8.131,,3.7293E+02,,1.4734E-01,,13.3746,13.3774,0.1526,,92.341,75.628,,,,,,,,,,,,
CalCOFI,2007SR,011,,2007_011d,15-Jul-2020 01:29:42,14-Jul-2020 17:29:42,31.84572,-119.57022,093.3 060.0,093.3,060.0,47.000,47.335,,13.2754,,13.2773,,13.2764,33.4071,,33.4073,33.4078,,33.4094,33.4084,5.4786,,5.7069,5.6974,4.4884,,6.7740,5.5984,5.6479,238.683,248.6731,247.0026,195.543,418.2397,239.0151,243.0089,0.1341,,1.1533,0.5012,,,,,25.1055,,25.1056,,0.6953,84.0453,,8.129,,3.7286E+02,,1.2061E-01,,13.2689,13.2709,0.1555,,92.035,75.404,,,,,,,,,,,,
CalCOFI,2007SR,011,,2007_011d,15-Jul-2020 01:29:45,14-Jul-2020 17:29:45,31.84572,-119.57022,093.3 060.0,093.3,060.0,48.000,48.342,,13.2345,,13.2692,,13.2519,33.4174,,33.4176,33.4167,,33.4183,33.4180,5.3955,,5.6201,5.6097,4.4777,,6.7484,5.5743,5.5920,235.058,244.8889,243.1839,195.075,409.3735,237.9660,240.5750,0.1405,,1.2289,0.5215,,,,,25.1217,,25.1142,,0.6986,83.9742,,8.124,,3.7439E+02,,1.0711E-01,,13.2279,13.2626,0.1584,,90.568,75.216,,,,,,,,,,,,
CalCOFI,2007SR,011,,2007_011d,15-Jul-2020 01:29:47,14-Jul-2020 17:29:47,31.84572,-119.57022,093.3 060.0,093.3,060.0,49.000,49.349,,13.2151,,13.2117,,13.2134,33.4341,,33.4343,33.4359,,33.4375,33.4359,5.2455,,5.4633,5.4513,4.4722,,6.7353,5.5619,5.5066,228.520,238.0639,236.2966,194.830,393.3825,237.4168,236.8567,0.1347,,1.1604,0.5032,,,,,25.1384,,25.1406,,0.6964,84.0211,,8.119,,3.7414E+02,,9.6117E-02,,13.2084,13.2049,0.1612,,88.025,75.043,,,,,,,,,,,,
CalCOFI,2007SR,011,,2007_011d,15-Jul-2020 01:29:49,14-Jul-2020 17:29:49,31.84572,-119.57022,093.3 060.0,093.3,060.0,50.000,50.356,,13.1738,,13.1722,,13.1730,33.4446,,33.4448,33.4465,,33.4481,33.4465,5.1176,,5.3297,5.3163,4.4679,,6.7250,5.5522,5.4343,222.946,232.2452,230.4247,194.640,379.7493,236.9908,233.7078,0.1410,,1.2348,0.5230,,,,,25.1549,,25.1566,,0.6952,84.0464,,8.115,,3.7638E+02,,7.7672E-02,,13.1670,13.1654,0.1641,,85.812,74.915,,,,,,,,,,,,
CalCOFI,2007SR,011,,2007_011d,15-Jul-2020 01:29:50,14-Jul-2020 17:29:50,31.84572,-119.57022,093.3 060.0,093.3,060.0,51.000,51.364,,13.1079,,13.0976,,13.1028,33.4672,,33.4674,33.4704,,33.4720,33.4697,5.0741,,5.2842,5.2704,4.4646,,6.7171,5.5448,5.4076,221.042,230.2576,228.4190,194.489,375.0924,236.6523,232.5357,0.1281,,1.0825,0.4812,1.0609,,19.5504,6.197,25.1855,,25.1901,,0.6899,84.1585,,8.105,,3.7705E+02,,6.0796E-02,,13.1009,13.0907,0.1669,,84.978,74.756,,,,,,,,,,,,